Retour au catalogue

BREEZE-M R/B

ActifHEO
NORAD 42750·ROCKET BODY·🇷🇺 Russia

Lancé Jun 8, 2017 depuis Baikonur Cosmodrome

Loading…

Prochains Passages (prochaines 24 heures)

TLE

FraisSource: Space-Track

Époque: Sep 7, 2026, 03:36 UTC

1 42750U 17032B   26250.15049057  .00000093  00000-0  00000-0 0  9999
2 42750  30.2418 185.0820 6718232 257.0057  25.5808  2.26362832 76530

Suivez BREEZE-M R/B en temps réel avec AllMySat

Download on the App Store